Time,TemperatureF,DewpointF,PressureIn,WindDirection,WindDirectionDegrees,WindSpeedMPH,WindSpeedGustMPH,Humidity,HourlyPrecipIn,Conditions,Clouds,dailyrainin,SoftwareType,DateUTC
2013-02-20 00:01:00,5.0,-3.0,-100.00,West,275,10.0,17.0,70,-99.99,,,-99.99,,2013-02-20 06:01:00,
2013-02-20 00:10:00,5.0,-3.0,-100.00,West,260,9.0,14.0,70,-99.99,,,-99.99,,2013-02-20 06:10:00,
2013-02-20 00:32:00,5.0,-3.0,-100.00,West,260,9.0,14.0,70,-99.99,,,-99.99,,2013-02-20 06:32:00,
2013-02-20 00:42:00,5.0,-3.0,-100.00,West,260,9.0,14.0,70,-99.99,,,-99.99,,2013-02-20 06:42:00,
2013-02-20 00:52:00,5.0,-3.0,-100.00,West,260,9.0,14.0,70,-99.99,,,-99.99,,2013-02-20 06:52:00,
2013-02-20 01:01:00,5.0,-3.0,-100.00,West,260,9.0,14.0,70,-99.99,,,-99.99,,2013-02-20 07:01:00,
2013-02-20 01:10:00,4.0,-3.0,-100.00,West,260,11.0,15.0,70,-99.99,,,-99.99,,2013-02-20 07:10:00,
2013-02-20 01:32:00,4.0,-3.0,-100.00,West,260,11.0,15.0,70,-99.99,,,-99.99,,2013-02-20 07:32:00,
2013-02-20 01:42:00,4.0,-3.0,-100.00,West,260,11.0,15.0,70,-99.99,,,-99.99,,2013-02-20 07:42:00,
2013-02-20 01:52:00,4.0,-3.0,-100.00,West,260,11.0,15.0,70,-99.99,,,-99.99,,2013-02-20 07:52:00,
2013-02-20 02:05:00,4.0,-3.0,-100.00,West,260,11.0,15.0,70,-99.99,,,-99.99,,2013-02-20 08:05:00,
2013-02-20 02:10:00,4.0,-4.0,-100.00,WNW,300,14.0,19.0,69,-99.99,,,-99.99,,2013-02-20 08:10:00,
2013-02-20 02:32:00,4.0,-4.0,-100.00,WNW,300,14.0,19.0,69,-99.99,,,-99.99,,2013-02-20 08:32:00,
2013-02-20 02:42:00,4.0,-4.0,-100.00,WNW,300,14.0,19.0,69,-99.99,,,-99.99,,2013-02-20 08:42:00,
2013-02-20 02:52:00,4.0,-4.0,-100.00,WNW,300,14.0,19.0,69,-99.99,,,-99.99,,2013-02-20 08:52:00,
2013-02-20 03:01:00,4.0,-4.0,-100.00,WNW,300,14.0,19.0,69,-99.99,,,-99.99,,2013-02-20 09:01:00,
2013-02-20 03:32:00,4.0,-4.0,-100.00,West,275,10.0,16.0,69,-99.99,,,-99.99,,2013-02-20 09:32:00,
2013-02-20 03:42:00,4.0,-4.0,-100.00,West,275,10.0,16.0,69,-99.99,,,-99.99,,2013-02-20 09:42:00,
2013-02-20 03:52:00,4.0,-4.0,-100.00,West,275,10.0,16.0,69,-99.99,,,-99.99,,2013-02-20 09:52:00,
2013-02-20 04:01:00,4.0,-4.0,-100.00,West,275,10.0,16.0,69,-99.99,,,-99.99,,2013-02-20 10:01:00,
2013-02-20 04:11:00,3.0,-4.0,-100.00,WNW,285,7.0,14.0,70,-99.99,,,-99.99,,2013-02-20 10:11:00,
2013-02-20 04:32:00,3.0,-4.0,-100.00,WNW,285,7.0,14.0,70,-99.99,,,-99.99,,2013-02-20 10:32:00,
2013-02-20 04:42:00,3.0,-4.0,-100.00,WNW,285,7.0,14.0,70,-99.99,,,-99.99,,2013-02-20 10:42:00,
2013-02-20 04:52:00,3.0,-4.0,-100.00,WNW,285,7.0,14.0,70,-99.99,,,-99.99,,2013-02-20 10:52:00,
2013-02-20 05:02:00,3.0,-4.0,-100.00,WNW,285,7.0,14.0,70,-99.99,,,-99.99,,2013-02-20 11:02:00,
2013-02-20 05:10:00,3.0,-5.0,-100.00,West,280,9.0,14.0,69,-99.99,,,-99.99,,2013-02-20 11:10:00,
2013-02-20 05:32:00,3.0,-5.0,-100.00,West,280,9.0,14.0,69,-99.99,,,-99.99,,2013-02-20 11:32:00,
2013-02-20 05:42:00,3.0,-5.0,-100.00,West,280,9.0,14.0,69,-99.99,,,-99.99,,2013-02-20 11:42:00,
2013-02-20 05:52:00,3.0,-5.0,-100.00,West,280,9.0,14.0,69,-99.99,,,-99.99,,2013-02-20 11:52:00,
2013-02-20 06:01:00,3.0,-5.0,-100.00,West,280,9.0,14.0,69,-99.99,,,-99.99,,2013-02-20 12:01:00,
2013-02-20 06:10:00,3.0,-5.0,-100.00,WNW,285,9.0,14.0,70,-99.99,,,-99.99,,2013-02-20 12:10:00,
2013-02-20 06:32:00,3.0,-5.0,-100.00,WNW,285,9.0,14.0,70,-99.99,,,-99.99,,2013-02-20 12:32:00,
2013-02-20 06:42:00,3.0,-5.0,-100.00,WNW,285,9.0,14.0,70,-99.99,,,-99.99,,2013-02-20 12:42:00,
2013-02-20 06:53:00,3.0,-5.0,-100.00,WNW,285,9.0,14.0,70,-99.99,,,-99.99,,2013-02-20 12:53:00,
2013-02-20 07:01:00,3.0,-5.0,-100.00,WNW,285,9.0,14.0,70,-99.99,,,-99.99,,2013-02-20 13:01:00,
2013-02-20 07:10:00,3.0,-4.0,-100.00,WNW,295,7.0,12.0,70,-99.99,,,-99.99,,2013-02-20 13:10:00,
2013-02-20 07:32:00,3.0,-4.0,-100.00,WNW,295,7.0,12.0,70,-99.99,,,-99.99,,2013-02-20 13:32:00,
2013-02-20 07:42:00,3.0,-4.0,-100.00,WNW,295,7.0,12.0,70,-99.99,,,-99.99,,2013-02-20 13:42:00,
2013-02-20 07:52:00,3.0,-4.0,-100.00,WNW,295,7.0,12.0,70,-99.99,,,-99.99,,2013-02-20 13:52:00,
2013-02-20 08:01:00,3.0,-4.0,-100.00,WNW,295,7.0,12.0,70,-99.99,,,-99.99,,2013-02-20 14:01:00,
2013-02-20 08:11:00,6.0,-2.0,-100.00,NW,305,8.0,12.0,67,-99.99,,,-99.99,,2013-02-20 14:11:00,
2013-02-20 08:32:00,6.0,-2.0,-100.00,NW,305,8.0,12.0,67,-99.99,,,-99.99,,2013-02-20 14:32:00,
2013-02-20 08:42:00,6.0,-2.0,-100.00,NW,305,8.0,12.0,67,-99.99,,,-99.99,,2013-02-20 14:42:00,
2013-02-20 08:52:00,6.0,-2.0,-100.00,NW,305,8.0,12.0,67,-99.99,,,-99.99,,2013-02-20 14:52:00,
2013-02-20 09:01:00,6.0,-2.0,-100.00,NW,305,8.0,12.0,67,-99.99,,,-99.99,,2013-02-20 15:01:00,
2013-02-20 09:10:00,10.0,0.0,-100.00,NW,310,7.0,12.0,65,-99.99,,,-99.99,,2013-02-20 15:10:00,
2013-02-20 09:32:00,10.0,0.0,-100.00,NW,310,7.0,12.0,65,-99.99,,,-99.99,,2013-02-20 15:32:00,
2013-02-20 09:42:00,10.0,0.0,-100.00,NW,310,7.0,12.0,65,-99.99,,,-99.99,,2013-02-20 15:42:00,
2013-02-20 09:52:00,10.0,0.0,-100.00,NW,310,7.0,12.0,65,-99.99,,,-99.99,,2013-02-20 15:52:00,
2013-02-20 10:01:00,10.0,0.0,-100.00,NW,310,7.0,12.0,65,-99.99,,,-99.99,,2013-02-20 16:01:00,
2013-02-20 10:10:00,13.0,3.0,-100.00,NW,325,9.0,13.0,63,-99.99,,,-99.99,,2013-02-20 16:10:00,
2013-02-20 10:32:00,13.0,3.0,-100.00,NW,325,9.0,13.0,63,-99.99,,,-99.99,,2013-02-20 16:32:00,
2013-02-20 10:42:00,13.0,3.0,-100.00,NW,325,9.0,13.0,63,-99.99,,,-99.99,,2013-02-20 16:42:00,
2013-02-20 10:52:00,13.0,3.0,-100.00,NW,325,9.0,13.0,63,-99.99,,,-99.99,,2013-02-20 16:52:00,
2013-02-20 11:01:00,13.0,3.0,-100.00,NW,325,9.0,13.0,63,-99.99,,,-99.99,,2013-02-20 17:01:00,
2013-02-20 11:10:00,17.0,5.0,-100.00,WNW,300,6.0,10.0,59,-99.99,,,-99.99,,2013-02-20 17:10:00,
2013-02-20 11:32:00,17.0,5.0,-100.00,WNW,300,6.0,10.0,59,-99.99,,,-99.99,,2013-02-20 17:32:00,
2013-02-20 11:42:00,17.0,5.0,-100.00,WNW,300,6.0,10.0,59,-99.99,,,-99.99,,2013-02-20 17:42:00,
2013-02-20 11:52:00,17.0,5.0,-100.00,WNW,300,6.0,10.0,59,-99.99,,,-99.99,,2013-02-20 17:52:00,
2013-02-20 12:02:00,17.0,5.0,-100.00,WNW,300,6.0,10.0,59,-99.99,,,-99.99,,2013-02-20 18:02:00,
2013-02-20 12:10:00,19.0,6.0,-100.00,NW,310,7.0,11.0,58,-99.99,,,-99.99,,2013-02-20 18:10:00,
2013-02-20 12:32:00,19.0,6.0,-100.00,NW,310,7.0,11.0,58,-99.99,,,-99.99,,2013-02-20 18:32:00,
2013-02-20 12:42:00,19.0,6.0,-100.00,NW,310,7.0,11.0,58,-99.99,,,-99.99,,2013-02-20 18:42:00,
2013-02-20 12:52:00,19.0,6.0,-100.00,NW,310,7.0,11.0,58,-99.99,,,-99.99,,2013-02-20 18:52:00,
2013-02-20 13:01:00,19.0,6.0,-100.00,NW,310,7.0,11.0,58,-99.99,,,-99.99,,2013-02-20 19:01:00,
2013-02-20 13:11:00,19.0,6.0,-100.00,WSW,255,6.0,10.0,57,-99.99,,,-99.99,,2013-02-20 19:11:00,
2013-02-20 13:32:00,19.0,6.0,-100.00,WSW,255,6.0,10.0,57,-99.99,,,-99.99,,2013-02-20 19:32:00,
2013-02-20 13:42:00,19.0,6.0,-100.00,WSW,255,6.0,10.0,57,-99.99,,,-99.99,,2013-02-20 19:42:00,
2013-02-20 13:52:00,19.0,6.0,-100.00,WSW,255,6.0,10.0,57,-99.99,,,-99.99,,2013-02-20 19:52:00,
2013-02-20 14:01:00,19.0,6.0,-100.00,WSW,255,6.0,10.0,57,-99.99,,,-99.99,,2013-02-20 20:01:00,
2013-02-20 15:11:00,20.0,8.0,-100.00,WNW,285,7.0,13.0,59,-99.99,,,-99.99,,2013-02-20 21:11:00,
2013-02-20 15:32:00,20.0,8.0,-100.00,WNW,285,7.0,13.0,59,-99.99,,,-99.99,,2013-02-20 21:32:00,
2013-02-20 15:42:00,20.0,8.0,-100.00,WNW,285,7.0,13.0,59,-99.99,,,-99.99,,2013-02-20 21:42:00,
2013-02-20 15:52:00,20.0,8.0,-100.00,WNW,285,7.0,13.0,59,-99.99,,,-99.99,,2013-02-20 21:52:00,
2013-02-20 16:01:00,20.0,8.0,-100.00,WNW,285,7.0,13.0,59,-99.99,,,-99.99,,2013-02-20 22:01:00,
2013-02-20 16:10:00,20.0,7.0,-100.00,WNW,300,9.0,13.0,56,-99.99,,,-99.99,,2013-02-20 22:10:00,
2013-02-20 16:32:00,20.0,7.0,-100.00,WNW,300,9.0,13.0,56,-99.99,,,-99.99,,2013-02-20 22:32:00,
2013-02-20 16:43:00,20.0,7.0,-100.00,WNW,300,9.0,13.0,56,-99.99,,,-99.99,,2013-02-20 22:43:00,
2013-02-20 16:52:00,20.0,7.0,-100.00,WNW,300,9.0,13.0,56,-99.99,,,-99.99,,2013-02-20 22:52:00,
2013-02-20 17:01:00,20.0,7.0,-100.00,WNW,300,9.0,13.0,56,-99.99,,,-99.99,,2013-02-20 23:01:00,
2013-02-20 17:11:00,20.0,6.0,-100.00,NW,320,6.0,8.0,56,-99.99,,,-99.99,,2013-02-20 23:11:00,
2013-02-20 17:32:00,20.0,6.0,-100.00,NW,320,6.0,8.0,56,-99.99,,,-99.99,,2013-02-20 23:32:00,
2013-02-20 17:42:00,20.0,6.0,-100.00,NW,320,6.0,8.0,56,-99.99,,,-99.99,,2013-02-20 23:42:00,
2013-02-20 17:52:00,20.0,6.0,-100.00,NW,320,6.0,8.0,56,-99.99,,,-99.99,,2013-02-20 23:52:00,
2013-02-20 18:03:00,20.0,6.0,-100.00,NW,320,6.0,8.0,56,-99.99,,,-99.99,,2013-02-21 00:03:00,
2013-02-20 18:11:00,17.0,6.0,-100.00,NNW,340,4.0,4.0,61,-99.99,,,-99.99,,2013-02-21 00:11:00,
2013-02-20 18:32:00,17.0,6.0,-100.00,NNW,340,4.0,4.0,61,-99.99,,,-99.99,,2013-02-21 00:32:00,
2013-02-20 18:42:00,17.0,6.0,-100.00,NNW,340,4.0,4.0,61,-99.99,,,-99.99,,2013-02-21 00:42:00,
2013-02-20 18:52:00,17.0,6.0,-100.00,NNW,340,4.0,4.0,61,-99.99,,,-99.99,,2013-02-21 00:52:00,
2013-02-20 19:01:00,17.0,6.0,-100.00,NNW,340,4.0,4.0,61,-99.99,,,-99.99,,2013-02-21 01:01:00,
2013-02-20 19:11:00,16.0,6.0,-100.00,North,350,4.0,6.0,66,-99.99,,,-99.99,,2013-02-21 01:11:00,
2013-02-20 19:32:00,16.0,6.0,-100.00,North,350,4.0,6.0,66,-99.99,,,-99.99,,2013-02-21 01:32:00,
2013-02-20 19:42:00,16.0,6.0,-100.00,North,350,4.0,6.0,66,-99.99,,,-99.99,,2013-02-21 01:42:00,
2013-02-20 19:52:00,16.0,6.0,-100.00,North,350,4.0,6.0,66,-99.99,,,-99.99,,2013-02-21 01:52:00,
2013-02-20 20:01:00,16.0,6.0,-100.00,North,350,4.0,6.0,66,-99.99,,,-99.99,,2013-02-21 02:01:00,
2013-02-20 20:11:00,15.0,6.0,-100.00,North,350,3.0,4.0,67,-99.99,,,-99.99,,2013-02-21 02:11:00,
2013-02-20 20:32:00,15.0,6.0,-100.00,North,350,3.0,4.0,67,-99.99,,,-99.99,,2013-02-21 02:32:00,
2013-02-20 20:42:00,15.0,6.0,-100.00,North,350,3.0,4.0,67,-99.99,,,-99.99,,2013-02-21 02:42:00,
2013-02-20 20:52:00,15.0,6.0,-100.00,North,350,3.0,4.0,67,-99.99,,,-99.99,,2013-02-21 02:52:00,
2013-02-20 21:01:00,15.0,6.0,-100.00,North,350,3.0,4.0,67,-99.99,,,-99.99,,2013-02-21 03:01:00,
2013-02-20 21:11:00,13.0,6.0,-100.00,SW,230,1.0,1.0,72,-99.99,,,-99.99,,2013-02-21 03:11:00,
2013-02-20 21:32:00,13.0,6.0,-100.00,SW,230,1.0,1.0,72,-99.99,,,-99.99,,2013-02-21 03:32:00,
2013-02-20 21:42:00,13.0,6.0,-100.00,SW,230,1.0,1.0,72,-99.99,,,-99.99,,2013-02-21 03:42:00,
2013-02-20 21:52:00,13.0,6.0,-100.00,SW,230,1.0,1.0,72,-99.99,,,-99.99,,2013-02-21 03:52:00,
2013-02-20 22:01:00,13.0,6.0,-100.00,SW,230,1.0,1.0,72,-99.99,,,-99.99,,2013-02-21 04:01:00,
2013-02-20 22:10:00,13.0,6.0,-100.00,North,350,4.0,4.0,76,-99.99,,,-99.99,,2013-02-21 04:10:00,
2013-02-20 22:32:00,13.0,6.0,-100.00,North,350,4.0,4.0,76,-99.99,,,-99.99,,2013-02-21 04:32:00,
2013-02-20 22:42:00,13.0,6.0,-100.00,North,350,4.0,4.0,76,-99.99,,,-99.99,,2013-02-21 04:42:00,
2013-02-20 22:52:00,13.0,6.0,-100.00,North,350,4.0,4.0,76,-99.99,,,-99.99,,2013-02-21 04:52:00,
2013-02-20 23:02:00,13.0,6.0,-100.00,North,350,4.0,4.0,76,-99.99,,,-99.99,,2013-02-21 05:02:00,
2013-02-20 23:37:00,11.0,5.0,-100.00,SW,235,0.0,3.0,77,-99.99,,,-99.99,,2013-02-21 05:37:00,
2013-02-20 23:46:00,11.0,5.0,-100.00,SW,235,0.0,3.0,77,-99.99,,,-99.99,,2013-02-21 05:46:00,